This is the latest recevied weather packets stored in our database for station/object KB3KBR-WX. If no packets are shown the sender has not sent any weather packets the latest 10 day(s).
| Time | Temp. | Humidity | Pressure | Rain* | Wind** | Luminosity | Snow |
|---|---|---|---|---|---|---|---|
| 1778111461 | 8.33° C | 61% | 1010.4 hPa | 0 mm | - | - | - |
| 1778111131 | 8.33° C | 60% | 1010.1 hPa | 0 mm | - | - | - |
| 1778110831 | 8.33° C | 60% | 1010.1 hPa | 0 mm | - | - | - |
| 1778110531 | 8.89° C | 61% | 1009.7 hPa | 0 mm | - | - | - |
| 1778110231 | 8.89° C | 60% | 1009.6 hPa | 0 mm | - | - | - |
| 1778109931 | 8.89° C | 60% | 1009.6 hPa | 0 mm | - | - | - |
| 1778109601 | 8.89° C | 59% | 1009.6 hPa | 0 mm | - | - | - |
| 1778109303 | 8.89° C | 58% | 1009.6 hPa | 0 mm | - | - | - |
| 1778109271 | 8.89° C | 58% | 1009.6 hPa | 0 mm | - | - | - |
| 1778108941 | 8.89° C | 59% | 1009.3 hPa | 0 mm | - | - | - |
| 1778108641 | 8.89° C | 59% | 1009.3 hPa | 0 mm | - | - | - |
| 1778108311 | 8.89° C | 59% | 1009.3 hPa | 0 mm | - | - | - |
| 1778107981 | 8.89° C | 59% | 1009.1 hPa | 0 mm | - | - | - |
| 1778107681 | 9.44° C | 57% | 1009.1 hPa | 0 mm | - | - | - |
| 1778107351 | 9.44° C | 56% | 1009.2 hPa | 0 mm | - | - | - |
| 1778107100 | 9.44° C | 59% | 1009.2 hPa | 0 mm | - | - | - |
| 1778107021 | 9.44° C | 59% | 1009.2 hPa | 0 mm | - | - | - |
| 1778106721 | 9.44° C | 59% | 1009 hPa | 0 mm | - | - | - |
| 1778106421 | 9.44° C | 57% | 1008.9 hPa | 0 mm | - | - | - |
| 1778106091 | 9.44° C | 55% | 1008.8 hPa | 0 mm | - | - | - |
| 1778105791 | 10° C | 60% | 1008.7 hPa | 0 mm | - | - | - |
| 1778105461 | 10° C | 56% | 1008.8 hPa | 0 mm | - | - | - |
| 1778105160 | 10° C | 59% | 1008.7 hPa | 0 mm | - | - | - |
| 1778104861 | 10° C | 60% | 1008.5 hPa | 0 mm | - | - | - |
| 1778104561 | 10° C | 59% | 1008.5 hPa | 0 mm | - | - | - |
* Rain latest hour (hover to see other rain measurements)
** Current wind speed in m/s (hover to see current wind gust speed)